• In Hungary
  • List of Countries
  • For 7 days
  • Water Temperature
  • Satellite Maps
  • Weather Map
  • News
  • Weather Widgets
  • user-avatar
    Login

    Hourly Weather Ludynia

    Today, 23 September, Sunday

    Time Temperature Precipitation Wind Pressure Humidity
    00:00 +12°C° 0 mm 3 mps 741 mmHg 63%
    01:00 +11°C° 0 mm 3 mps 741 mmHg 64%
    02:00 +11°C° 0.1 mm 3 mps 741 mmHg 66%
    03:00 +11°C° 0.1 mm 3 mps 740 mmHg 68%
    04:00 +11°C° 0.1 mm 3 mps 740 mmHg 71%
    05:00 +11°C° 0 mm 4 mps 740 mmHg 70%
    06:00 +11°C° 0 mm 4 mps 740 mmHg 70%
    07:00 +12°C° 0 mm 4 mps 740 mmHg 69%
    08:00 +13°C° 0 mm 5 mps 740 mmHg 64%
    09:00 +14°C° 0 mm 5 mps 740 mmHg 59%
    10:00 +15°C° 0 mm 5 mps 740 mmHg 53%
    11:00 +15°C° 0 mm 5 mps 739 mmHg 54%
    12:00 +15°C° 0 mm 5 mps 739 mmHg 54%
    13:00 +15°C° 0 mm 5 mps 738 mmHg 54%
    14:00 +15°C° 0.2 mm 4 mps 738 mmHg 60%
    15:00 +14°C° 0.2 mm 3 mps 737 mmHg 65%
    16:00 +15°C° 0.2 mm 2 mps 736 mmHg 71%
    17:00 +13°C° 1.2 mm 3 mps 735 mmHg 76%
    18:00 +13°C° 1.2 mm 3 mps 734 mmHg 81%
    19:00 +12°C° 1.2 mm 3 mps 733 mmHg 87%
    20:00 +13°C° 0.8 mm 5 mps 732 mmHg 85%
    21:00 +13°C° 0.8 mm 6 mps 730 mmHg 83%
    22:00 +13°C° 0.8 mm 8 mps 729 mmHg 81%
    23:00 +13°C° 1.7 mm 8 mps 729 mmHg 84%

    Tomorrow, 24 September, Monday

    Time Temperature Precipitation Wind Pressure Humidity
    00:00 +15°C° 1.7 mm 7 mps 728 mmHg 86%
    01:00 +15°C° 1.7 mm 7 mps 728 mmHg 89%
    02:00 +12°C° 1.4 mm 8 mps 729 mmHg 88%
    03:00 +11°C° 1.4 mm 9 mps 730 mmHg 87%
    04:00 +8°C° 1.4 mm 10 mps 731 mmHg 86%
    05:00 +8°C° 0.2 mm 9 mps 733 mmHg 85%
    06:00 +8°C° 0.2 mm 9 mps 735 mmHg 83%
    07:00 +7°C° 0.2 mm 8 mps 736 mmHg 82%
    08:00 +8°C° 0.2 mm 9 mps 737 mmHg 77%
    09:00 +8°C° 0.2 mm 9 mps 738 mmHg 72%
    10:00 +9°C° 0.2 mm 10 mps 739 mmHg 67%
    11:00 +9°C° 0.1 mm 10 mps 739 mmHg 63%
    12:00 +11°C° 0.1 mm 10 mps 740 mmHg 58%
    13:00 +11°C° 0.1 mm 10 mps 740 mmHg 53%
    14:00 +11°C° 0.1 mm 10 mps 740 mmHg 53%
    15:00 +10°C° 0.1 mm 9 mps 741 mmHg 53%
    16:00 +10°C° 0.1 mm 9 mps 741 mmHg 54%
    17:00 +8°C° 0 mm 9 mps 741 mmHg 56%
    18:00 +7°C° 0 mm 8 mps 742 mmHg 58%
    19:00 +7°C° 0 mm 8 mps 742 mmHg 61%
    20:00 +6°C° 0.3 mm 7 mps 743 mmHg 66%
    21:00 +6°C° 0.3 mm 7 mps 743 mmHg 71%
    22:00 +5°C° 0.3 mm 7 mps 744 mmHg 75%
    23:00 +5°C° 0 mm 6 mps 745 mmHg 76%

    Day after tomorrow, 25 September, Tuesday

    Time Temperature Precipitation Wind Pressure Humidity
    00:00 +5°C° 0 mm 6 mps 745 mmHg 77%
    01:00 +5°C° 0 mm 5 mps 746 mmHg 77%
    02:00 +5°C° 0 mm 5 mps 746 mmHg 79%
    03:00 +5°C° 0 mm 5 mps 747 mmHg 80%
    04:00 +4°C° 0 mm 4 mps 747 mmHg 81%
    05:00 +3°C° 0 mm 5 mps 748 mmHg 80%
    06:00 +5°C° 0 mm 5 mps 749 mmHg 79%
    07:00 +5°C° 0 mm 5 mps 749 mmHg 77%
    08:00 +5°C° 0 mm 6 mps 750 mmHg 67%
    09:00 +8°C° 0 mm 6 mps 750 mmHg 57%
    10:00 +9°C° 0 mm 6 mps 751 mmHg 47%
    11:00 +9°C° 0.1 mm 6 mps 751 mmHg 47%
    12:00 +9°C° 0.1 mm 6 mps 751 mmHg 47%
    13:00 +10°C° 0.1 mm 6 mps 751 mmHg 47%
    14:00 +10°C° 0 mm 6 mps 751 mmHg 47%
    15:00 +10°C° 0 mm 6 mps 751 mmHg 46%
    16:00 +10°C° 0 mm 5 mps 751 mmHg 45%
    17:00 +10°C° 0 mm 4 mps 752 mmHg 49%
    18:00 +8°C° 0 mm 3 mps 752 mmHg 53%
    19:00 +7°C° 0 mm 2 mps 753 mmHg 57%
    20:00 +6°C° 0 mm 2 mps 753 mmHg 57%
    21:00 +6°C° 0 mm 2 mps 754 mmHg 58%
    22:00 +6°C° 0 mm 2 mps 754 mmHg 59%
    23:00 +5°C° 0 mm 2 mps 754 mmHg 60%

    26 September, Wednesday

    Time Temperature Precipitation Wind Pressure Humidity
    00:00 +5°C° 0 mm 2 mps 754 mmHg 61%
    01:00 +5°C° 0 mm 2 mps 755 mmHg 62%
    02:00 +5°C° 0 mm 2 mps 754 mmHg 63%
    03:00 +4°C° 0 mm 2 mps 754 mmHg 64%
    04:00 +4°C° 0 mm 2 mps 754 mmHg 65%
    05:00 +5°C° 0 mm 2 mps 754 mmHg 64%
    06:00 +4°C° 0 mm 3 mps 754 mmHg 63%
    07:00 +5°C° 0 mm 3 mps 754 mmHg 63%
    08:00 +8°C° 0 mm 3 mps 754 mmHg 56%
    09:00 +10°C° 0 mm 4 mps 754 mmHg 50%
    10:00 +11°C° 0 mm 4 mps 753 mmHg 43%
    11:00 +12°C° 0 mm 4 mps 753 mmHg 40%
    12:00 +13°C° 0 mm 5 mps 752 mmHg 38%
    13:00 +14°C° 0 mm 5 mps 752 mmHg 35%
    14:00 +14°C° 0 mm 5 mps 751 mmHg 38%
    15:00 +14°C° 0 mm 5 mps 750 mmHg 40%
    16:00 +13°C° 0 mm 5 mps 750 mmHg 43%
    17:00 +13°C° 0 mm 4 mps 749 mmHg 46%
    18:00 +12°C° 0 mm 4 mps 749 mmHg 48%
    19:00 +11°C° 0 mm 4 mps 749 mmHg 51%
    20:00 +11°C° 0 mm 4 mps 749 mmHg 51%
    21:00 +10°C° 0 mm 5 mps 749 mmHg 51%
    22:00 +10°C° 0 mm 5 mps 749 mmHg 51%
    23:00 +9°C° 0 mm 5 mps 748 mmHg 51%

    27 September, Thursday

    Time Temperature Precipitation Wind Pressure Humidity
    00:00 +9°C° 0 mm 5 mps 748 mmHg 51%
    01:00 +9°C° 0 mm 5 mps 748 mmHg 51%
    02:00 +8°C° 0 mm 5 mps 747 mmHg 52%
    03:00 +8°C° 0 mm 5 mps 747 mmHg 52%
    04:00 +8°C° 0 mm 5 mps 747 mmHg 53%
    05:00 +8°C° 0 mm 5 mps 746 mmHg 53%
    06:00 +9°C° 0 mm 5 mps 746 mmHg 53%
    07:00 +9°C° 0 mm 5 mps 746 mmHg 52%
    08:00 +11°C° 0 mm 6 mps 746 mmHg 49%
    09:00 +14°C° 0 mm 6 mps 746 mmHg 45%
    10:00 +16°C° 0 mm 6 mps 746 mmHg 41%
    11:00 +17°C° 0 mm 6 mps 745 mmHg 41%
    12:00 +19°C° 0 mm 6 mps 745 mmHg 41%
    13:00 +19°C° 0 mm 6 mps 744 mmHg 41%
    14:00 +19°C° 0 mm 6 mps 744 mmHg 43%
    15:00 +19°C° 0 mm 5 mps 744 mmHg 46%
    16:00 +19°C° 0 mm 5 mps 743 mmHg 49%
    17:00 +17°C° 0 mm 5 mps 743 mmHg 53%
    18:00 +15°C° 0 mm 4 mps 743 mmHg 57%
    19:00 +14°C° 0 mm 4 mps 743 mmHg 61%
    20:00 +14°C° 0 mm 4 mps 743 mmHg 62%
    21:00 +13°C° 0 mm 4 mps 743 mmHg 63%
    22:00 +13°C° 0 mm 4 mps 743 mmHg 65%
    23:00 +13°C° 0 mm 4 mps 743 mmHg 66%

    28 September, Friday

    Time Temperature Precipitation Wind Pressure Humidity
    00:00 +12°C° 0 mm 4 mps 742 mmHg 67%
    01:00 +12°C° 0 mm 4 mps 742 mmHg 69%
    02:00 +12°C° 0 mm 4 mps 742 mmHg 69%
    03:00 +12°C° 0 mm 4 mps 741 mmHg 70%
    04:00 +12°C° 0 mm 4 mps 741 mmHg 70%
    05:00 +12°C° 0.1 mm 5 mps 741 mmHg 71%
    06:00 +12°C° 0.1 mm 5 mps 741 mmHg 71%
    07:00 +13°C° 0.1 mm 5 mps 741 mmHg 72%
    08:00 +13°C° 0.1 mm 5 mps 742 mmHg 75%
    09:00 +12°C° 0.1 mm 4 mps 742 mmHg 78%
    10:00 +12°C° 0.1 mm 4 mps 743 mmHg 80%
    11:00 +13°C° 0 mm 4 mps 743 mmHg 75%
    12:00 +13°C° 0 mm 3 mps 743 mmHg 70%
    13:00 +13°C° 0 mm 3 mps 743 mmHg 65%
    14:00 +15°C° 0 mm 2 mps 743 mmHg 62%
    15:00 +15°C° 0 mm 2 mps 743 mmHg 59%
    16:00 +15°C° 0 mm 2 mps 742 mmHg 56%
    17:00 +13°C° 0 mm 1 mps 743 mmHg 59%
    18:00 +12°C° 0 mm 1 mps 743 mmHg 62%
    19:00 +11°C° 0 mm 1 mps 743 mmHg 65%
    20:00 +11°C° 0 mm 1 mps 743 mmHg 66%
    21:00 +10°C° 0 mm 1 mps 743 mmHg 67%
    22:00 +10°C° 0 mm 1 mps 743 mmHg 67%
    23:00 +10°C° 0 mm 1 mps 742 mmHg 67%
    Show more